McCook, NE

1:27 PM CDT on September 29, 2016 (GMT -0500)
McCook Municipal

Weather History for KMCK - June, 2012

Change the Weather History Date:

Tuesday, June 12, 2012

  Actual Average Record
Temperature  
Mean Temperature 69 °F 69 °F  
Max Temperature 88 °F 83 °F 103 °F (1952)
Min Temperature 49 °F 55 °F 43 °F (1955)
Cooling Degree Days 4    
Growing Degree Days 19 (Base 50)    
Moisture  
Dew Point 46 °F    
Average Humidity 46    
Maximum Humidity 83    
Minimum Humidity 20    
Precipitation  
Precipitation 0.13 in 0.12 in 1.39 in (1970)
Month to date precipitation 0.19 1.37  
Year to date precipitation 4.21 9.31  
Sea Level Pressure  
Sea Level Pressure 30.05 in    
Wind  
Wind Speed 11 mph (ESE)    
Max Wind Speed 25 mph    
Max Gust Speed 37 mph    
Visibility 10 miles    
Events Rain , Thunderstorm    
T = Trace of Precipitation, MM = Missing Value Source: NWS Daily Summary

Daily Weather History Graph

Daily Weather History Graph

Search for Another Location

Airport or City:

Trip Planner

Search our weather history database for the weather conditions in past years. The results will help you decide how hot, cold, wet, or windy it might be!

Date:

Astronomy

Jun. 12, 2012 Rise Set
Actual Time 6:12 AM CDT 9:12 PM CDT
Civil Twilight 5:39 AM CDT 9:45 PM CDT
Nautical Twilight 4:57 AM CDT 10:27 PM CDT
Astronomical Twilight 4:08 AM CDT 11:16 PM CDT
Moon 1:59 AM CDT (6/12) 3:02 PM CDT (6/12)
Length of Visible Light 16h 06m
Length of Day
15h 00m
Last Quarter, 38% of the Moon is Illuminated
Jun 12
Last Quarter
Jun 19
New
Jun 26
First Quarter
Jul 3
Full
Jul 10
Last Quarter

Hourly Weather History & Observations

Time (CDT) Temp. Dew Point Humidity Pressure Visibility Wind Dir Wind Speed Gust Speed Precip Events Conditions
12:53 AM 60.1 °F 43.0 °F 53% 30.11 in 10.0 mi East 5.8 mph - N/A   Clear
1:53 AM 57.9 °F 43.0 °F 58% 30.11 in 10.0 mi ENE 5.8 mph - N/A   Clear
2:53 AM 55.0 °F 44.1 °F 67% 30.12 in 10.0 mi ENE 5.8 mph - N/A   Clear
3:53 AM 52.0 °F 44.1 °F 74% 30.12 in 10.0 mi ENE 4.6 mph - N/A   Clear
4:53 AM 51.1 °F 44.1 °F 77% 30.13 in 10.0 mi NE 3.5 mph - N/A   Clear
5:53 AM 51.1 °F 44.1 °F 77% 30.15 in 10.0 mi East 3.5 mph - N/A   Clear
6:53 AM 50.0 °F 45.0 °F 83% 30.15 in 10.0 mi NE 5.8 mph - N/A   Clear
7:53 AM 57.9 °F 46.0 °F 65% 30.15 in 10.0 mi East 4.6 mph - N/A   Clear
8:53 AM 66.0 °F 48.0 °F 52% 30.16 in 10.0 mi East 8.1 mph - N/A   Clear
9:53 AM 73.0 °F 46.0 °F 38% 30.15 in 10.0 mi SE 12.7 mph 21.9 mph N/A   Clear
10:53 AM 78.1 °F 46.9 °F 33% 30.12 in 10.0 mi SE 16.1 mph 24.2 mph N/A   Clear
11:53 AM 78.1 °F 46.0 °F 32% 30.11 in 10.0 mi SE 16.1 mph 26.5 mph N/A   Partly Cloudy
12:53 PM 78.1 °F 46.0 °F 32% 30.09 in 10.0 mi SE 18.4 mph 28.8 mph N/A   Clear
1:53 PM 84.0 °F 46.0 °F 26% 30.04 in 10.0 mi SSE 24.2 mph 28.8 mph N/A   Clear
2:53 PM 88.0 °F 45.0 °F 22% 30.00 in 10.0 mi SSE 21.9 mph 31.1 mph N/A   Partly Cloudy
3:53 PM 84.0 °F 45.0 °F 25% 29.98 in 10.0 mi SE 23.0 mph 31.1 mph N/A   Mostly Cloudy
4:53 PM 84.9 °F 39.9 °F 20% 29.93 in 10.0 mi SSE 24.2 mph 31.1 mph N/A   Scattered Clouds
5:53 PM 84.0 °F 42.1 °F 23% 29.91 in 10.0 mi SSE 25.3 mph 33.4 mph N/A   Mostly Cloudy
6:12 PM 82.4 °F 42.8 °F 25% 29.97 in 10.0 mi SSE 17.3 mph 28.8 mph N/A Thunderstorm Overcast
6:53 PM 78.1 °F 48.0 °F 35% 29.97 in 6.0 mi NNE 6.9 mph - 0.02 in Rain , Thunderstorm Light Thunderstorms and Rain
7:51 PM 73.4 °F 51.8 °F 47% 29.96 in 10.0 mi SE 19.6 mph 28.8 mph 0.10 in   Partly Cloudy
7:53 PM 73.9 °F 51.1 °F 45% 29.92 in 10.0 mi SE 18.4 mph 28.8 mph 0.10 in   Partly Cloudy
8:53 PM 72.0 °F 51.1 °F 48% 29.91 in 10.0 mi SE 15.0 mph 24.2 mph N/A   Clear
9:53 PM 69.8 °F 51.8 °F 53% 29.97 in 10.0 mi ESE 10.4 mph 23.0 mph N/A   Mostly Cloudy
10:42 PM 71.6 °F 51.8 °F 50% 30.05 in 10.0 mi North 18.4 mph 27.6 mph N/A Thunderstorm Thunderstorm
10:53 PM 75.0 °F 46.0 °F 36% 29.96 in 10.0 mi NW 18.4 mph 36.8 mph N/A Thunderstorm Thunderstorm
11:09 PM 75.2 °F 46.4 °F 36% 30.05 in 10.0 mi South 16.1 mph 32.2 mph 0.01 in Thunderstorm Overcast
11:30 PM 71.6 °F 48.2 °F 43% 30.04 in 10.0 mi East 11.5 mph - 0.01 in   Scattered Clouds
11:53 PM 71.1 °F 48.9 °F 45% 29.98 in 10.0 mi East 10.4 mph - 0.01 in   Clear